{"data":{"norad_id":62570,"intl_designator":"2025-006S","name":"STARLINK-32764","alt_names":[],"object_type":"PAYLOAD","status":"ACTIVE","operator":null,"country":"US","launch_date":"2025-01-10","launch_site_code":"AFETR","launch_vehicle":null,"mission":null,"orbit_class":"UNKNOWN","rcs_meters":null,"size_class":null,"mass_kg":null,"dimensions":null,"purposes":["comms"],"wikipedia_slug":null,"has_3d_model":false,"image_url":null,"decayed_at":null,"tle_current":{"epoch":"2026-05-25T05:26:19.622400Z","epoch_age_seconds":56263,"freshness":"FRESH","line1":"1 62570U 25006S   26145.22661600  .00009346  00000+0  34860-3 0  9999","line2":"2 62570  42.9983 220.7039 0001281 276.6711  83.3995 15.27589088 76566","mean_motion":15.27589088,"eccentricity":0.0001281,"inclination_deg":42.9983,"raan_deg":220.7039,"arg_perigee_deg":276.6711,"mean_anomaly_deg":83.3995,"bstar":0.0003486,"rev_number":7656,"period_min":94.266187897776,"perigee_km":482.14296898021,"apogee_km":483.90079788614,"semimajor_km":6861.1588834332,"source":"CELESTRAK","updated_at":"2026-05-25T13:38:19.731192Z"}}}